Location: Plainartige
(45.6866°N, 1.7993°E)
Time: 21:46:52
(UTC+00:00)

DIWATA 2B (PO-101) - Pass Details

Date: 07 July 2022
Orbit: 583 x 599 km, 98.0° (Epoch: 16 August)

Event Time Altitude Azimuth Distance (km) Brightness Sun altitude
Exits shadow 02:29:57 21° 223° (SW) 1,345 ? -13.5°
Maximum altitude 02:31:44 29° 264° (W) 1,102 ? -13.3°
Drops below altitude 10° 02:35:27 10° 326° (NW) 1,948 ? -12.9°
Sets 02:37:52 0° 337° (NNW) 2,855 ? -12.6°
